Location: Nag� el Ma?a??a
(24.0667°N, 32.8833°E)
Time: 06:13:06
(UTC+00:00)

Cosmos 1486 Rocket - Visible Passes

Search period start: 28 January 2022 00:00
Search period end: 07 February 2022 00:00
Orbit: 759 x 782 km, 74.1° (Epoch: 27 January)

Date Brightness Start Highest point End Pass type
(mag) Time Alt. Az. Time Alt. Az. Time Alt. Az.
28 Jan 4.0 02:58:43 15° NNW 03:03:07 86° ENE 03:08:24 10° SSE visible
29 Jan 5.0 02:24:23 26° NNE 02:26:54 45° ENE 02:31:57 10° SE visible
29 Jan 5.7 04:06:11 10° WNW 04:08:31 13° W 04:10:53 10° WSW visible
29 Jan 6.7 16:52:12 10° WSW 16:55:20 16° WNW 16:58:28 10° NNW visible
30 Jan 5.9 01:50:07 24° ENE 01:50:37 25° ENE 01:54:52 10° SE visible
30 Jan 5.0 03:30:31 20° WNW 03:32:31 25° W 03:36:46 10° SSW visible
30 Jan 6.0 16:14:29 10° SW 16:18:58 29° WNW 16:23:28 10° N visible
31 Jan 6.9 01:15:52 12° E 01:15:52 12° E 01:16:43 10° E visible
31 Jan 4.2 02:56:17 47° W 02:56:27 47° WSW 03:01:30 10° S visible
01 Feb 4.7 02:22:02 44° SSE 02:22:02 44° SSE 02:25:37 10° SSE visible
02 Feb 6.3 01:47:46 18° SE 01:47:46 18° SE 01:49:12 10° SSE visible
02 Feb 6.7 16:09:34 10° WSW 16:12:32 15° WNW 16:15:30 10° NNW visible
03 Feb 6.3 02:53:51 10° SSW 02:53:51 10° SSW 02:53:53 10° SSW visible
